Change the Weather History Date:

Sunday, May 19, 2013

  Actual Average Record
Temperature  
Mean Temperature 62 °F -  
Max Temperature 75 °F 66 °F 88 °F (1998)
Min Temperature 48 °F 46 °F 30 °F (2002)
Degree Days  
Heating Degree Days 4    
Growing Degree Days 12 (Base 50)    
Moisture  
Dew Point 57 °F    
Average Humidity 81    
Maximum Humidity 100    
Minimum Humidity 64    
Precipitation  
Precipitation 0.00 in - - ()
Sea Level Pressure  
Sea Level Pressure 29.89 in    
Wind  
Wind Speed 4 mph (SSE)    
Max Wind Speed 15 mph    
Max Gust Speed 24 mph    
Visibility 7 miles    
Events      
Averages and records for this station are not official NWS values.
T = Trace of Precipitation, MM = Missing Value Source: NWS Daily Summary

Daily Weather History Graph

Daily Weather History Graph

Search for Another Location

Airport or City:

Trip Planner

Search our weather history database for the weather conditions in past years. The results will help you decide how hot, cold, wet, or windy it might be!

Date:

Astronomy

May. 19, 2013 Rise Set
Actual Time 5:21 AM CDT 8:14 PM CDT
Civil Twilight 4:48 AM CDT 8:48 PM CDT
Nautical Twilight 4:05 AM CDT 9:31 PM CDT
Astronomical Twilight 3:15 AM CDT 10:21 PM CDT
Moon 2:07 PM CDT (5/19) 1:57 AM CDT (5/19)
Length of Visible Light 16h 00m
Length of Day
14h 52m
Waxing Gibbous, 65% of the Moon is Illuminated
May 19
Waxing Gibbous
May 24
Full
May 31
Last Quarter
Jun 8
New
Jun 16
First Quarter

Hourly Weather History & Observations

Time (CDT) Temp. Dew Point Humidity Pressure Visibility Wind Dir Wind Speed Gust Speed Precip Events Conditions
12:53 AM 50.0 °F 48.0 °F 93% 29.97 in 7.0 mi Calm Calm - N/A   Clear
1:53 AM 51.1 °F 48.0 °F 89% 29.96 in 8.0 mi Calm Calm - N/A   Clear
2:53 AM 50.0 °F 48.0 °F 93% 29.96 in 6.0 mi Calm Calm - N/A   Clear
3:53 AM 51.1 °F 48.0 °F 89% 29.97 in 8.0 mi Calm Calm - N/A   Clear
5:53 AM 48.9 °F 48.9 °F 100% 29.96 in 4.0 mi Calm Calm - N/A   Clear
7:53 AM 61.0 °F 55.9 °F 83% 29.97 in 8.0 mi South 5.8 mph - N/A   Clear
8:53 AM 66.9 °F 59.0 °F 76% 29.97 in 9.0 mi South 5.8 mph - N/A   Clear
9:53 AM 71.1 °F 63.0 °F 75% 29.96 in 7.0 mi South 8.1 mph - N/A   Clear
10:53 AM 73.0 °F 63.0 °F 71% 29.94 in 9.0 mi SE 6.9 mph - N/A   Clear
11:53 AM 72.0 °F 63.0 °F 73% 29.93 in 8.0 mi South 8.1 mph - N/A   Clear
12:53 PM 68.0 °F 61.0 °F 78% 29.88 in 6.0 mi SE 10.4 mph - N/A   Haze
2:53 PM 71.1 °F 62.1 °F 73% 29.87 in 7.0 mi South 13.8 mph 23.0 mph N/A   Clear
3:53 PM 73.9 °F 63.0 °F 68% 29.86 in 8.0 mi SSE 15.0 mph 24.2 mph N/A   Clear
4:53 PM 75.9 °F 63.0 °F 64% 29.86 in 10.0 mi South 13.8 mph 19.6 mph N/A   Clear
5:53 PM 72.0 °F 62.1 °F 71% 29.80 in 10.0 mi SE 8.1 mph - N/A   Clear
6:53 PM 66.9 °F 60.1 °F 79% 29.78 in 9.0 mi ESE 9.2 mph - N/A   Clear
7:53 PM 62.1 °F 57.0 °F 84% 29.80 in 6.0 mi SSE 6.9 mph - N/A   Haze
8:53 PM 61.0 °F 57.0 °F 87% 29.81 in 6.0 mi SSE 3.5 mph - N/A   Clear
9:53 PM 60.1 °F 57.0 °F 90% 29.80 in 6.0 mi SE 4.6 mph - N/A   Clear
11:53 PM 59.0 °F 55.9 °F 90% 29.77 in 6.0 mi SE 3.5 mph - N/A   Clear